Location: Unspecified
(56.5167°N, 0.0000°E)
Time: 00:34:59
(UTC+02:00)

ISS - Visible Passes

Search period start: 25 September 2016 00:00
Search period end: 05 October 2016 00:00
Orbit: 400 x 410 km, 51.6° (Epoch: 25 September)

Date Brightness Start Highest point End Pass type
(mag) Time Alt. Az. Time Alt. Az. Time Alt. Az.
01 Oct -1.2 21:08:32 10° S 21:09:57 14° SSE 21:09:57 14° SSE visible
02 Oct -1.0 20:18:03 10° SSE 20:18:34 10° SE 20:19:06 10° SE visible
02 Oct -1.3 21:51:29 10° SW 21:52:45 18° SSW 21:52:45 18° SSW visible
03 Oct -1.8 20:59:44 10° SSW 21:02:17 21° SSE 21:02:46 20° SE visible
03 Oct -0.3 22:35:15 10° WSW 22:35:26 11° WSW 22:35:26 11° WSW visible
04 Oct -1.3 20:08:13 10° SSW 20:10:21 16° SSE 20:12:28 10° ESE visible
04 Oct -1.9 21:43:15 10° SW 21:45:22 27° SSW 21:45:22 27° SSW visible
